Presure
185 150 294 360 386 363 127 387 376 365 369 368 371 346 324 299 290 286 298 314 203 312 359 297 130 222 201 181 199 170 202 175 176 190 179 158 164 157 160 157 163 155 85 110 118
267 133 399 380 376 395 115 470 559 549 498 345 351 363 342 321 302 157 278 305 317 330 314 229 279 226 211 187 211 209 172 164 183 168 151 167 167 160 155 172 165 155 161 113 132
235 265 195 387 398 458 539 508 481 483 511 507 411 344 358 355 321 305 280 290 301 321 333 308 197 207 95 197 190 188 199 173 167 188 186 169 169 158 159 164 163 154 160 148 158
203 188 292 393 390 555 513 493 469 457 468 475 502 437 343 361 310 317 304 282 297 312 327 284 288 264 282 231 228 179 199 170 112 187 180 198 186 168 158 152 147 161 149 157 149
196 180 225 385 384 395 516 490 460 436 447 453 459 473 461 337 355 313 320 298 294 305 318 286 303 274 217 221 195 213 190 177 150 166 187 181 176 173 172 154 147 144 159 143 147
164 195 266 374 373 383 435 506 461 431 434 441 446 457 467 424 343 329 315 312 287 246 310 275 295 295 245 244 203 254 194 201 161 169 186 193 193 175 176 164 156 151 159 159 150
173 199 378 370 368 377 370 410 479 499 472 449 435 429 457 472 428 347 309 314 297 292 302 275 300 339 250 269 210 192 211 213 195 182 137 186 191 185 179 163 160 158 158 162 150
230 198 281 365 317 365 357 400 417 481 453 453 423 417 418 452 481 349 320 314 173 285 303 297 278 336 309 266 240 203 241 216 203 172 198 163 176 155 191 165 168 153 146 162 153
213 176 226 352 173 356 367 384 399 463 451 440 426 426 408 435 476 473 348 305 245 291 298 300 267 329 305 273 259 225 238 191 211 215 174 174 193 174 172 175 167 165 153 143 158
198 193 216 353 357 348 369 381 401 412 451 440 448 418 426 419 451 436 331 319 311 291 290 293 297 316 274 271 254 257 257 238 178 200 213 160 168 194 174 173 175 175 165 155 162
281 226 294 358 353 349 369 374 398 433 434 441 413 413 424 415 437 441 429 336 313 286 295 288 277 261 119 270 255 249 253 252 180 233 206 205 90 198 134 189 189 177 161 161 164
163 189 205 348 346 345 375 340 419 347 392 452 457 428 413 429 436 443 426 339 316 294 283 296 279 275 264 277 255 134 86 251 250 169 247 213 170 173 186 184 202 186 171 170 148
149 154 170 363 350 343 369 324 365 382 360 368 415 469 456 450 445 438 425 331 314 296 285 291 284 288 301 302 256 252 248 159 245 237 159 206 210 122 71 66 185 138 188 171 166
138 225 223 202 361 342 359 338 369 368 349 359 343 359 471 476 454 420 465 331 311 294 286 287 289 281 313 295 257 253 255 260 263 262 255 224 164 192 179 151 141 182 188 176 171
143 151 240 182 198 343 332 329 366 363 356 352 350 346 353 445 441 410 424 314 303 290 282 296 301 289 290 261 282 251 252 249 250 254 266 271 217 156 194 185 154 134 180 185 189
153 153 145 131 365 311 335 338 353 372 349 336 326 328 329 345 397 351 364 300 297 287 286 275 296 286 282 290 281 255 246 246 252 255 254 250 269 211 177 185 185 185 183 185 176
155 143 135 175 208 172 336 342 335 344 321 336 323 322 327 321 333 335 342 298 299 294 285 287 287 290 287 298 288 302 252 244 249 251 261 254 250 261 240 203 183 185 190 186 180
133 159 148 161 167 136 216 322 339 341 331 349 332 319 305 315 324 323 352 328 289 296 293 288 283 304 306 286 305 289 262 259 254 254 248 248 250 252 257 254 225 182 186 191 185
164 160 158 124 274 157 259 323 326 326 361 339 332 334 316 305 312 324 307 323 290 293 297 304 290 284 280 280 288 310 319 251 317 260 247 247 246 244 244 255 261 200 229 173 187
137 167 157 148 155 360 132 147 324 327 317 314 331 329 318 314 307 307 320 342 308 298 288 283 301 298 265 279 284 292 289 311 344 298 245 243 238 235 230 234 240 247 212 238 203
142 166 145 170 245 121 308 268 327 311 331 318 338 321 332 321 306 291 303 305 312 335 321 327 287 288 299 284 267 257 251 299 287 335 365 232 298 234 224 224 229 236 241 248 243
224 152 158 164 158 216 150 334 282 319 313 304 320 314 295 288 301 306 314 305 314 296 295 285 301 314 316 303 332 332 327 301 280 254 258 353 383 281 353 241 231 237 238 240 240
160 144 191 144 193 249 368 131 197 324 303 307 308 312 309 299 302 286 281 285 294 283 315 316 292 289 296 297 304 302 295 298 315 326 298 285 296 339 342 293 354 329 265 264 235
152 149 151 143 155 199 192 349 333 275 310 291 295 301 305 308 295 284 282 272 269 277 288 292 298 290 284 291 296 288 295 294 296 319 337 334 315 312 319 333 326 335 306 295 289
139 162 150 166 171 172 237 144 194 327 316 302 295 292 285 291 305 299 288 280 275 273 271 280 276 282 278 279 291 286 283 286 293 297 300 320 306 321 317 301 309 315 309 292 287
153 139 232 139 143 197 204 198 347 335 319 308 299 294 279 281 285 297 289 298 287 277 275 279 276 276 272 273 273 272 270 280 277 282 280 287 308 279 299 301 310 285 279 294 289
145 160 135 155 167 207 163 308 194 328 315 311 306 294 285 277 283 275 289 295 289 299 289 277 285 279 276 274 272 277 278 278 275 271 274 275 273 287 293 295 304 313 294 284 274
Wind_Speed
71 58 58 55 56 52 57 50 45 47 52 54 56 64 69 68 67 66 66 68 45 68 61 97 43 104 98 88 96 84 100 88 94 102 98 71 85 78 77 69 75 71 28 46 55
86 49 64 61 59 58 54 37 33 43 55 57 60 63 71 75 74 35 70 73 70 71 83 72 104 107 102 93 102 102 86 85 100 87 54 89 92 85 71 84 75 71 73 57 60
91 75 42 68 67 51 30 22 22 29 31 43 68 67 69 73 76 75 78 78 77 74 77 90 70 95 33 98 94 94 97 93 87 105 99 82 93 82 80 79 72 73 75 67 67
64 65 59 77 73 34 28 22 16 24 25 28 30 70 72 73 80 83 84 80 81 77 77 96 100 107 111 107 105 88 102 90 55 103 95 103 102 92 77 68 62 80 71 72 66
63 59 64 84 81 77 34 17 13 17 21 16 22 34 55 73 77 87 84 84 83 81 78 92 95 106 75 108 102 112 101 94 72 85 102 93 86 95 97 77 68 68 80 65 66
61 64 82 88 85 82 62 27 16 24 24 18 17 27 37 70 81 85 87 89 87 66 82 93 94 99 109 112 103 116 107 108 76 89 101 104 98 84 98 93 83 75 80 81 71
69 71 86 89 86 84 83 60 29 18 22 23 22 22 21 26 61 83 91 92 91 87 83 93 91 81 109 114 109 106 118 113 101 94 53 99 98 92 96 87 87 84 82 86 74
96 80 109 89 79 84 84 64 58 18 12 7 19 20 22 20 23 82 93 93 46 90 85 87 97 74 102 115 117 111 120 116 105 87 106 77 87 77 97 93 96 79 67 87 76
88 75 103 89 59 84 80 71 59 31 14 7 15 16 18 15 27 36 87 95 73 89 86 85 98 75 97 117 119 118 118 92 108 115 86 87 104 91 84 100 99 99 84 62 79
88 78 97 82 82 83 77 72 58 56 25 10 11 9 14 16 31 44 82 95 94 89 88 88 91 80 101 116 114 115 120 118 90 101 113 79 86 105 89 87 104 107 99 78 87
111 102 98 77 80 80 74 71 57 51 36 19 6 4 10 16 23 38 50 90 93 88 87 90 96 67 13 113 116 117 120 121 95 122 109 109 30 109 55 96 104 104 87 92 93
80 84 92 74 78 78 65 75 45 55 65 24 4 3 6 16 20 35 52 85 92 90 90 89 89 93 100 110 116 47 17 119 123 84 121 113 87 86 94 92 101 104 101 100 67
66 75 68 79 74 73 60 73 52 43 42 58 33 4 5 16 25 41 50 84 90 89 93 83 84 87 81 91 116 118 118 65 120 120 78 107 112 48 24 21 95 65 105 99 96
53 89 96 90 63 68 60 66 41 32 39 48 42 49 21 22 36 48 50 80 88 87 88 82 85 87 71 89 115 117 119 118 117 115 116 116 83 105 93 74 67 94 100 94 98
53 76 95 83 72 62 68 62 36 31 30 42 45 45 45 34 43 40 50 73 78 80 82 80 79 82 84 100 90 116 113 110 111 112 113 112 109 74 104 93 80 68 93 98 102
73 80 64 40 54 65 61 58 42 25 32 34 32 40 39 42 44 42 46 67 75 78 80 77 78 82 85 87 88 113 109 108 109 107 104 104 107 110 86 100 100 98 96 100 95
74 62 59 87 85 80 57 51 49 36 44 28 25 36 40 32 36 33 50 64 70 79 79 81 78 77 79 78 91 84 111 102 99 96 102 103 103 100 107 106 98 100 103 98 94
47 82 60 83 36 43 74 55 42 38 30 24 20 20 19 30 29 25 31 55 62 69 77 76 70 72 72 79 69 89 95 109 100 104 101 101 89 92 98 99 111 102 105 108 101
79 76 79 41 96 74 44 48 42 38 13 18 18 19 20 17 17 26 36 45 57 65 72 71 69 69 71 74 76 62 61 83 84 107 100 99 87 91 91 93 94 114 105 87 103
60 84 80 73 58 41 41 57 37 33 29 26 9 11 9 13 14 14 13 19 43 59 57 57 64 69 62 68 66 69 74 68 51 73 91 99 93 96 92 92 95 98 112 108 112
59 82 59 87 95 36 46 38 29 30 19 21 8 14 7 10 9 11 4 9 17 29 39 35 55 55 57 62 62 58 58 56 57 43 33 83 71 107 96 93 96 99 100 99 104
91 62 82 85 64 62 67 34 33 23 20 20 14 11 13 13 7 7 9 9 16 16 20 25 29 31 34 41 40 36 35 41 53 60 60 25 25 72 48 109 104 109 103 103 103
89 53 91 60 89 54 28 37 49 16 18 16 13 11 9 8 11 13 11 10 10 12 17 27 21 22 25 29 33 33 29 30 26 27 42 46 46 36 43 68 57 70 104 112 108
80 74 62 62 79 86 28 26 23 24 12 17 14 8 6 4 4 8 9 11 14 14 15 19 24 29 26 28 29 27 26 26 26 16 14 23 36 39 42 40 53 62 78 83 88
51 97 68 93 93 93 60 50 40 15 11 9 11 9 8 3 5 5 9 12 14 16 16 16 19 21 23 23 24 25 24 24 22 21 18 20 28 24 31 46 41 52 64 77 82
95 47 85 34 39 59 76 78 19 18 12 10 9 12 11 7 4 7 7 11 15 16 18 18 21 22 24 25 25 26 27 27 27 25 26 21 21 43 36 39 47 58 61 57 69
88 97 28 66 92 88 72 21 30 21 18 13 12 12 11 11 8 6 8 11 11 17 21 22 24 27 27 27 27 25 30 29 29 29 29 31 31 20 24 28 30 41 64 71 74
Wind_Direction
337 348 338 343 336 328 325 302 284 270 258 250 241 227 228 230 230 228 223 220 226 217 217 212 220 213 214 218 216 215 211 215 217 221 220 223 220 224 227 223 226 228 228 233 232
354 340 346 347 340 332 338 302 280 269 251 249 240 233 223 224 226 248 222 219 216 216 211 219 209 211 213 217 213 215 213 216 216 223 220 220 220 225 229 228 223 229 228 235 227
358 350 345 349 347 339 321 297 274 271 266 254 235 231 227 221 221 219 221 217 214 215 211 211 211 211 218 214 216 216 213 217 220 220 221 221 219 222 227 230 227 232 230 228 230
352 344 350 352 354 346 335 323 279 278 272 257 254 230 225 222 215 215 216 216 213 214 213 210 207 208 205 212 212 216 213 216 239 219 223 219 217 219 224 227 217 226 233 231 231
346 345 353 354 356 357 354 339 277 287 286 260 247 242 232 217 217 213 209 211 214 211 213 210 207 207 208 211 213 213 216 211 226 220 221 222 220 217 218 225 226 224 232 231 234
347 350 353 355 356 357 358 357 297 310 292 265 248 244 237 225 213 210 210 207 211 212 210 208 208 207 209 210 212 209 218 215 216 220 221 223 219 219 217 222 227 229 231 233 234
350 351 355 355 357 357 359 360 357 312 286 264 239 237 236 233 219 207 210 205 209 210 208 206 207 209 209 206 212 218 216 216 215 219 225 222 221 216 217 225 224 229 228 231 235
2 356 359 355 355 358 359 358 6 355 335 261 232 234 228 234 217 205 204 204 211 209 206 205 207 208 204 206 210 217 214 217 217 222 220 225 225 225 218 224 227 230 233 228 233
2 353 0 357 335 358 358 359 4 1 351 288 231 223 219 228 168 172 200 207 207 207 206 206 208 209 204 204 208 214 215 220 219 217 222 223 223 222 221 218 227 228 231 233 232
353 356 359 358 357 359 358 0 8 5 6 339 224 245 205 209 179 183 197 200 202 206 206 207 208 209 205 204 210 211 213 217 222 220 219 222 224 224 222 222 222 227 230 237 235
2 360 357 358 357 358 358 1 7 9 10 11 328 230 196 197 186 182 191 195 200 205 205 208 208 207 233 204 209 212 214 215 221 220 220 220 238 224 219 220 223 226 233 236 238
1 354 1 356 358 358 358 5 33 16 46 24 16 210 168 187 180 176 182 192 198 202 206 211 206 206 207 203 209 212 216 217 219 223 220 220 226 228 226 224 225 225 231 232 242
351 355 357 358 358 357 360 6 12 56 50 53 51 89 179 166 162 155 167 189 195 199 207 210 206 207 207 208 209 214 218 219 220 222 223 222 222 235 228 248 227 225 230 232 236
338 359 1 3 357 357 3 7 18 41 31 67 64 55 97 136 146 147 156 187 193 198 208 211 207 206 209 209 209 215 219 219 221 223 224 223 226 225 229 229 229 230 231 234 234
355 1 1 2 2 359 358 8 23 27 45 73 73 67 54 98 132 142 150 187 193 199 209 209 209 209 210 211 215 213 220 223 223 224 225 227 223 232 229 231 231 232 233 235 236
10 3 355 351 358 358 357 5 26 43 53 73 70 78 70 65 120 146 133 184 191 200 207 212 211 212 212 213 215 214 221 225 227 227 227 228 231 226 233 232 234 234 235 234 235
9 0 356 359 1 2 357 2 13 22 20 71 72 82 80 88 91 144 162 186 190 199 206 211 214 213 216 219 218 219 220 226 230 233 231 231 231 233 230 231 236 237 237 238 239
339 4 353 358 357 3 357 356 8 15 28 85 95 83 92 97 118 125 168 183 195 200 211 215 218 213 214 220 223 223 224 224 229 231 234 234 233 235 238 236 232 237 239 239 239
359 352 1 349 359 354 356 355 359 7 81 58 81 119 116 122 116 152 176 192 199 205 211 212 217 222 224 225 225 227 234 230 233 230 234 239 240 240 240 240 239 234 239 237 241
348 359 5 359 349 349 8 2 353 0 11 14 84 131 106 134 137 160 183 159 202 207 218 222 218 220 225 229 230 232 235 236 241 235 233 238 239 240 241 241 239 239 236 239 240
344 355 359 356 350 355 349 353 347 354 360 1 47 68 142 182 167 52 171 168 177 175 203 216 228 229 229 231 233 233 231 243 237 245 243 229 235 236 238 237 241 242 241 242 241
347 4 360 358 8 355 356 338 348 351 351 4 2 35 65 84 94 176 207 160 189 205 216 213 218 217 217 229 217 213 220 242 240 230 227 225 232 231 224 237 240 245 245 246 243
340 4 350 12 350 349 329 2 344 335 345 347 6 5 26 78 101 111 124 113 146 175 193 203 211 217 220 224 220 228 232 233 237 241 231 228 228 225 223 232 223 225 240 243 247
343 348 349 2 351 353 340 325 324 340 330 335 335 357 3 324 104 138 144 167 170 172 175 179 194 205 211 221 223 214 211 217 224 231 246 222 224 225 221 221 223 224 229 234 238
344 334 345 343 344 349 347 355 348 308 299 308 308 312 334 358 267 232 182 187 185 184 191 194 191 200 196 205 204 204 212 214 210 208 216 221 212 222 222 220 227 227 228 233 238
333 354 352 336 5 352 340 344 294 292 283 273 272 282 304 301 249 223 200 224 204 206 202 212 208 206 205 197 202 206 214 210 213 208 204 206 206 223 222 222 220 223 228 230 235
335 329 348 354 340 347 357 302 348 290 293 267 248 265 275 277 258 258 219 212 213 224 215 215 215 213 212 211 206 204 204 212 207 210 212 205 216 220 230 233 238 235 228 226 233